Weather History for GMFO - November, 2011

Change the Weather History Date:

Saturday, November 19, 2011

  Actual Average Record
Temperature  
Mean Temperature 60 °F -  
Max Temperature 70 °F 62 °F - (-1)
Min Temperature 51 °F 43 °F - (-1)
Degree Days  
Heating Degree Days 4    
Growing Degree Days 10 (Base 50)    
Moisture  
Dew Point 48 °F    
Average Humidity 67    
Maximum Humidity 88    
Minimum Humidity 32    
Precipitation  
Precipitation 0.00 in 0.06 in - ()
Sea Level Pressure  
Sea Level Pressure 29.91 in    
Wind  
Wind Speed 8 mph ()    
Max Wind Speed 21 mph    
Max Gust Speed -    
Visibility 6.9 miles    
Events      
Averages and records for this station are not official NWS values.
T = Trace of Precipitation, MM = Missing Value Source: Averaged Metar Reports

Daily Weather History Graph

Daily Weather History Graph

Search for Another Location

Airport or City:

Trip Planner

Search our weather history database for the weather conditions in past years. The results will help you decide how hot, cold, wet, or windy it might be!

Date:

Astronomy

Nov. 19, 2011 Rise Set
Actual Time 6:45 AM WET 5:00 PM WET
Civil Twilight 6:18 AM WET 5:27 PM WET
Nautical Twilight 5:47 AM WET 5:58 PM WET
Astronomical Twilight 5:17 AM WET 6:28 PM WET
Moon 12:05 AM WET (11/19) 12:56 PM WET (11/19)
Length of Visible Light 11h 09m
Length of Day
10h 15m
Last Quarter, 40% of the Moon is Illuminated
Nov 19
Last Quarter
Nov 25
New
Dec 2
First Quarter
Dec 10
Full
Dec 18
Last Quarter

Hourly Weather History & Observations

Time (WET) Temp. Dew Point Humidity Pressure Visibility Wind Dir Wind Speed Gust Speed Precip Events Conditions
12:00 AM 54 °F 49 °F 79% 29.99 in 9 mi SW 8.1 mph - -   Partly Cloudy
12:00 AM 53.6 °F 50.0 °F 88% 29.98 in 6.2 mi SW 8.1 mph - N/A   Scattered Clouds
2:00 AM 51.8 °F 46.4 °F 82% 29.98 in 6.2 mi South 6.9 mph - N/A   Scattered Clouds
3:00 AM 51.8 °F 46.4 °F 82% 29.95 in 6.2 mi WSW 11.5 mph - N/A   Scattered Clouds
5:00 AM 51.8 °F 46.4 °F 82% 29.95 in 6.2 mi SW 10.4 mph - N/A   Scattered Clouds
6:00 AM 53.6 °F 46.4 °F 77% 29.95 in 6.2 mi SW 3.5 mph - N/A   Scattered Clouds
7:00 AM 53.6 °F 46.4 °F 77% 29.95 in - South 4.6 mph - N/A   Clear
8:00 AM 57.2 °F 48.2 °F 72% 29.95 in - Variable 2.3 mph - N/A   Clear
8:45 AM 60 °F 47 °F 53% 29.93 in 12 mi SSW 10.4 mph - -   Scattered Clouds
9:00 AM 60.8 °F 48.2 °F 63% 29.95 in - SSW 10.4 mph - N/A   Clear
10:00 AM 64.4 °F 48.2 °F 56% 29.95 in - SSW 19.6 mph - N/A   Clear
11:00 AM 68.0 °F 48.2 °F 49% 29.92 in - South 15.0 mph - N/A   Clear
12:00 PM 71 °F 48 °F 33% 29.84 in 12 mi SSW 16.1 mph - -  
12:00 PM 69.8 °F 48.2 °F 46% 29.89 in 6.2 mi SSW 16.1 mph - N/A   Mostly Cloudy
2:00 PM 69.8 °F 48.2 °F 46% 29.83 in 6.2 mi South 20.7 mph - N/A   Mostly Cloudy
3:00 PM 69 °F 46 °F 32% 29.79 in 12 mi SSW 17.3 mph - -   Scattered Clouds
5:00 PM 62.6 °F 51.8 °F 68% 29.86 in 5.0 mi SSW 4.6 mph - N/A   Mostly Cloudy
6:00 PM 61 °F 52 °F 65% 29.84 in 5 mi NNW 3.5 mph - -   Overcast
6:00 PM 60.8 °F 51.8 °F 72% 29.86 in 5.0 mi NNW 3.5 mph - N/A   Mostly Cloudy
8:00 PM 59.0 °F 50.0 °F 72% 29.89 in 5.0 mi SW 5.8 mph - N/A   Scattered Clouds
9:00 PM 55.4 °F 50.0 °F 82% 29.89 in 5.0 mi South 3.5 mph - N/A   Mostly Cloudy
10:00 PM 53.6 °F 50.0 °F 88% 29.89 in 5.0 mi WSW 5.8 mph - N/A   Mostly Cloudy
11:00 PM 51.8 °F 48.2 °F 88% 29.86 in 5.0 mi Variable 1.2 mph - N/A   Mostly Cloudy